Temperature
3 3 3 3 3 3 3 3 2 2 2 3 3 3 3 3 3 3 3 3 3 3 3 3 3 3 3 3 3 2 2 2 2 2 2 2 2 2
2 3 3 3 3 3 2 2 2 2 2 2 3 3 3 3 2 2 3 3 2 2 2 2 2 2 2 2 2 2 2 2 2 2 2 1 1 1
2 2 2 2 2 2 2 2 2 2 2 2 2 2 2 2 2 2 2 2 2 2 2 2 2 2 2 2 2 2 2 2 1 1 1 1 1 1
2 2 2 1 1 1 1 1 1 1 1 1 2 2 2 2 1 2 2 2 2 2 2 2 1 1 1 1 1 1 1 1 1 1 0 0 0 0
1 1 1 1 1 1 1 1 1 1 1 1 1 1 1 1 1 1 1 1 1 1 1 1 1 1 1 1 1 1 1 0 0 0 -0 -0 -0 -0
1 1 1 0 1 1 0 0 0 0 0 0 0 0 0 0 0 1 1 1 1 1 1 1 1 0 0 0 0 0 0 0 -0 -0 -1 -1 -1 -1
0 0 0 0 0 -0 -0 0 0 0 0 -0 -0 -0 0 0 0 -0 -0 0 0 0 0 0 0 0 0 -0 -0 -0 -0 -0 -1 -1 -1 -1 -1 -1
0 -0 -0 -0 -0 -0 -1 -0 -0 -0 -0 -0 -0 -0 -0 -0 -0 -1 -1 -1 -1 -0 -0 -0 -0 -0 -0 -1 -1 -1 -1 -1 -1 -1 -2 -2 -2 -2
-0 -1 -1 -1 -1 -1 -1 -1 -1 -1 -1 -1 -1 -1 -1 -1 -1 -1 -1 -1 -1 -1 -1 -1 -1 -1 -1 -1 -1 -1 -2 -2 -2 -2 -2 -2 -2 -2
-1 -1 -1 -1 -1 -1 -1 -1 -1 -1 -1 -1 -1 -1 -1 -1 -1 -1 -2 -2 -1 -1 -2 -2 -2 -2 -1 -2 -2 -2 -2 -2 -2 -3 -3 -3 -3 -3
-1 -1 -2 -2 -1 -2 -2 -2 -1 -1 -1 -1 -1 -1 -1 -1 -2 -2 -2 -2 -2 -2 -2 -3 -2 -2 -2 -2 -2 -3 -3 -3 -3 -3 -3 -3 -3 -3
-2 -2 -2 -2 -2 -2 -2 -2 -2 -2 -2 -1 -2 -2 -2 -2 -2 -2 -2 -3 -3 -3 -3 -3 -3 -3 -4 -3 -3 -3 -3 -3 -3 -3 -3 -3 -3 -3
-2 -2 -2 -2 -2 -2 -2 -2 -2 -2 -2 -2 -2 -2 -2 -2 -2 -2 -3 -3 -3 -3 -3 -4 -4 -4 -4 -4 -4 -3 -4 -4 -4 -4 -4 -4 -4 -4
-2 -3 -3 -3 -3 -3 -3 -3 -3 -3 -3 -3 -2 -2 -2 -2 -2 -3 -3 -3 -3 -3 -4 -4 -4 -4 -4 -5 -5 -4 -4 -4 -4 -4 -4 -4 -4 -4
-3 -3 -3 -3 -3 -3 -3 -3 -3 -3 -3 -3 -3 -3 -3 -3 -3 -3 -3 -4 -4 -4 -4 -4 -4 -4 -5 -5 -5 -5 -5 -5 -5 -5 -5 -4 -4 -4
-3 -3 -3 -3 -3 -3 -3 -3 -3 -3 -3 -3 -3 -3 -3 -3 -3 -3 -4 -4 -4 -4 -4 -4 -4 -5 -5 -5 -5 -5 -5 -5 -5 -5 -5 -5 -5 -5
-3 -3 -3 -3 -3 -3 -3 -3 -3 -4 -4 -4 -4 -4 -4 -4 -4 -4 -4 -4 -4 -5 -5 -5 -5 -5 -5 -5 -5 -5 -5 -5 -5 -5 -5 -5 -5 -5
-4 -4 -4 -4 -4 -3 -4 -4 -4 -4 -4 -4 -4 -4 -4 -4 -4 -4 -5 -5 -5 -5 -5 -5 -5 -5 -5 -5 -5 -5 -5 -6 -5 -5 -6 -6 -5 -5
-4 -4 -4 -4 -4 -4 -4 -4 -4 -4 -4 -4 -4 -4 -4 -4 -5 -5 -5 -5 -5 -5 -5 -5 -6 -6 -6 -6 -6 -6 -6 -6 -6 -6 -6 -6 -6 -5
-4 -5 -4 -4 -4 -4 -4 -4 -4 -4 -4 -4 -5 -5 -5 -5 -5 -5 -5 -5 -6 -6 -6 -6 -6 -6 -6 -7 -6 -6 -6 -6 -6 -6 -6 -6 -6 -5
-5 -5 -5 -5 -4 -4 -4 -4 -5 -5 -5 -5 -5 -5 -5 -5 -5 -5 -6 -6 -6 -6 -6 -6 -6 -6 -6 -6 -7 -6 -6 -6 -6 -6 -6 -6 -6 -6
-5 -5 -5 -5 -5 -5 -5 -5 -5 -5 -5 -5 -5 -5 -5 -5 -6 -6 -6 -6 -6 -6 -6 -6 -6 -6 -6 -7 -7 -7 -6 -6 -6 -6 -6 -6 -7 -7
-5 -5 -5 -5 -5 -5 -5 -5 -5 -5 -5 -5 -6 -6 -5 -6 -6 -6 -6 -6 -6 -6 -6 -7 -7 -6 -7 -7 -7 -7 -7 -6 -6 -6 -6 -6 -6 -6
Wind_Speed
5 4 4 3 3 3 3 3 3 3 4 3 2 2 4 4 6 6 7 8 9 9 9 9 8 8 9 9 9 10 11 11 10 10 10 11 12 12
3 4 4 3 3 3 3 3 4 4 4 3 3 3 4 5 7 7 8 8 9 9 9 9 8 8 9 9 9 10 11 10 9 9 10 10 11 12
4 4 5 4 3 3 3 3 3 4 5 4 3 3 3 4 6 7 8 7 8 8 9 9 9 9 9 9 9 10 10 9 9 9 10 10 11 12
6 5 5 4 4 3 3 4 4 4 4 5 4 3 3 3 4 5 6 6 6 8 8 8 8 9 9 9 9 9 9 8 8 8 10 10 11 11
6 6 6 5 5 4 4 4 4 4 4 4 5 3 3 2 3 4 5 4 5 7 7 7 7 8 9 9 9 8 8 7 7 7 8 9 10 11
6 6 6 6 6 6 5 5 4 4 3 4 4 4 3 2 2 3 4 3 4 5 5 6 7 8 7 8 8 7 7 6 6 7 7 8 9 10
5 6 6 6 7 6 5 4 4 4 3 4 4 3 3 2 3 2 4 4 4 2 2 4 5 5 5 7 7 7 7 6 6 6 7 8 9 10
5 5 5 6 7 8 9 7 6 5 5 4 4 4 5 4 3 3 3 3 3 1 2 4 2 3 4 5 7 7 7 7 7 7 7 8 9 10
5 5 5 5 5 5 6 7 7 8 7 6 6 6 5 4 3 3 3 3 4 3 2 3 2 3 5 6 7 6 6 6 7 7 8 8 9 10
5 6 5 5 5 5 5 5 5 6 7 6 6 6 5 4 4 4 4 2 2 2 1 2 2 3 4 6 6 5 5 6 7 8 9 9 9 10
5 5 5 5 7 6 5 5 5 5 6 7 7 6 6 5 3 2 1 1 2 2 1 1 2 3 3 2 4 5 6 7 7 8 9 9 9 9
3 4 6 6 7 6 5 5 6 5 3 3 3 4 4 3 3 3 3 3 2 2 1 1 1 2 2 2 2 4 5 6 8 8 9 9 8 5
3 4 4 6 7 7 6 5 6 4 2 3 2 2 2 2 2 2 2 3 3 3 2 1 1 1 2 3 3 3 2 3 5 6 8 8 8 6
4 4 4 6 6 7 6 6 6 3 2 2 2 2 2 2 2 2 2 3 3 4 4 2 2 2 2 3 3 3 3 3 3 4 5 7 7 8
3 5 6 6 6 5 5 5 3 2 2 3 3 3 2 2 1 1 1 1 2 3 3 3 2 2 2 3 3 3 3 3 2 3 4 4 5 5
3 3 4 4 3 3 3 2 2 3 3 3 3 2 1 1 1 1 1 0 0 1 2 3 2 2 2 3 3 4 3 2 3 3 4 4 4 4
1 0 1 1 1 1 1 1 1 2 2 2 2 2 2 2 1 1 1 1 1 1 2 2 2 2 2 3 3 3 3 3 3 3 4 5 5 5
1 1 1 1 1 1 2 2 2 2 2 2 2 2 2 2 1 1 1 1 1 1 1 1 1 2 2 2 2 3 2 3 3 3 3 4 6 5
1 1 2 2 2 2 2 2 2 2 2 2 2 2 2 2 2 2 1 1 1 1 1 1 1 1 2 4 2 2 2 3 3 3 3 4 5 7
1 2 2 2 2 2 2 2 2 1 1 1 2 2 2 2 2 2 2 2 2 1 1 1 1 2 3 3 3 3 4 3 3 4 4 4 5 8
1 2 2 2 2 2 2 2 2 2 2 2 2 2 2 2 2 2 2 3 2 1 2 2 2 3 1 1 2 3 3 5 5 4 4 4 5 5
2 2 2 2 2 2 2 2 2 2 2 2 2 2 2 2 3 3 3 2 2 1 2 1 1 1 1 1 2 3 4 5 6 7 5 5 3 3
2 2 2 2 2 2 2 2 3 2 2 2 2 2 2 2 2 2 2 2 1 1 1 1 1 1 1 1 2 3 4 5 5 5 5 7 8 9
Wind_Direction
227 225 227 227 218 229 224 215 214 255 267 252 253 275 290 294 301 303 300 297 300 301 302 303 304 305 305 306 306 305 304 304 303 303 304 307 311 312
233 229 230 230 226 222 225 230 224 227 253 252 256 283 295 301 301 302 293 297 297 298 301 302 302 302 301 301 302 302 301 300 301 302 306 308 311 311
238 233 237 227 223 226 225 228 233 224 250 275 266 275 278 293 304 300 293 291 290 294 300 301 302 300 298 298 301 300 298 296 297 300 303 308 309 312
234 231 238 234 226 226 224 228 237 232 236 270 280 271 266 273 285 293 299 291 288 289 297 300 302 302 302 300 299 298 295 291 293 300 303 306 310 315
231 231 233 227 230 229 226 230 236 245 236 251 274 273 272 273 289 296 292 291 300 295 297 297 298 305 306 306 301 303 302 295 295 304 309 311 314 317
232 232 232 228 231 228 231 233 231 239 243 245 262 273 268 271 272 284 298 298 300 299 299 300 301 305 306 309 306 308 310 305 300 305 310 315 316 317
235 236 237 238 243 239 238 233 224 230 238 244 253 266 266 268 266 267 288 304 297 275 294 301 304 303 300 303 307 307 308 308 306 307 313 317 318 318
234 240 242 238 247 249 248 245 234 229 233 238 246 250 254 252 253 262 279 305 300 273 296 299 296 289 297 293 296 303 305 309 307 306 311 317 318 317
232 238 247 247 247 243 249 251 248 245 238 234 239 243 248 244 236 252 255 263 269 265 290 292 294 292 297 297 303 300 305 309 310 311 313 315 315 313
238 237 239 246 247 245 240 242 247 249 248 242 240 245 247 243 227 230 237 266 275 266 271 280 291 293 305 298 291 294 309 314 312 313 315 312 311 311
249 243 238 242 251 251 242 244 252 259 262 257 261 265 262 259 250 215 223 256 285 272 235 255 282 303 299 295 291 307 315 318 317 316 315 313 312 315
253 253 251 255 259 253 239 241 252 259 258 264 266 271 264 245 238 217 208 228 271 274 235 250 262 318 309 293 305 310 314 319 322 319 318 318 319 322
249 253 256 263 266 261 255 241 253 257 236 235 241 252 247 237 239 250 228 214 234 253 232 227 258 271 264 298 308 309 312 321 323 320 323 323 322 323
249 249 255 266 268 269 264 254 254 250 234 228 236 245 243 241 248 258 259 255 245 246 240 221 229 246 270 288 293 303 312 315 323 324 324 323 325 323
254 261 265 269 270 266 265 256 245 228 224 227 240 247 242 231 220 282 324 322 317 296 276 252 219 234 246 266 280 290 305 314 319 326 325 322 317 318
271 274 279 276 277 268 261 248 237 229 231 229 235 236 230 209 201 209 223 219 346 329 328 308 257 224 255 262 264 284 290 288 311 320 323 320 314 306
249 254 268 270 248 249 251 239 230 233 248 237 223 222 226 227 222 209 198 209 242 277 317 343 327 292 263 265 269 274 285 297 298 311 321 318 311 304
248 236 262 264 257 248 242 243 236 234 234 231 216 213 221 221 219 202 201 202 218 246 270 294 329 337 337 324 264 265 288 294 302 310 310 310 311 312
248 246 246 246 244 244 243 236 241 236 226 220 209 207 207 204 207 208 211 217 225 241 246 252 277 305 309 310 307 281 282 298 306 311 306 301 298 303
269 258 261 253 239 239 241 232 228 232 233 221 206 202 201 198 206 215 214 216 227 241 262 268 271 268 261 273 281 298 297 286 295 301 307 306 296 297
277 268 263 256 247 241 239 233 225 227 229 221 212 208 204 200 207 213 216 223 228 233 252 277 285 296 294 300 303 305 306 304 299 293 300 309 312 314
276 269 265 256 245 241 239 233 233 233 226 225 225 218 210 207 207 210 212 217 228 231 256 278 304 324 315 282 287 300 311 322 327 320 304 288 290 300
276 271 263 257 245 243 240 236 237 232 219 213 216 217 208 213 209 207 207 209 216 229 247 274 322 336 309 275 284 299 309 319 327 331 326 324 310 296
Height
1489 1490 1490 1491 1492 1493 1494 1494 1495 1492 1491 1491 1492 1492 1492 1491 1490 1489 1489 1488 1487 1486 1485 1484 1483 1482 1481 1480 1479 1477 1476 1474 1473 1472 1471 1469 1468 1467
1485 1485 1486 1487 1488 1489 1489 1490 1490 1490 1488 1487 1488 1488 1488 1487 1486 1485 1485 1484 1483 1482 1481 1480 1478 1477 1476 1475 1474 1472 1471 1470 1468 1467 1466 1464 1463 1462
1480 1481 1481 1482 1483 1484 1485 1485 1485 1486 1484 1483 1484 1484 1483 1483 1482 1482 1480 1479 1478 1478 1476 1475 1474 1473 1472 1470 1469 1467 1466 1465 1463 1462 1461 1460 1459 1458
1476 1476 1477 1478 1478 1479 1480 1480 1481 1481 1480 1479 1479 1479 1479 1478 1478 1477 1476 1475 1474 1473 1472 1471 1469 1468 1467 1466 1464 1463 1461 1460 1458 1458 1456 1455 1454 1453
1471 1472 1472 1473 1473 1474 1475 1475 1476 1476 1476 1475 1474 1474 1474 1474 1473 1472 1472 1470 1469 1468 1467 1466 1465 1464 1463 1461 1460 1458 1457 1455 1454 1453 1452 1451 1450 1448
1466 1467 1467 1468 1468 1469 1470 1471 1471 1471 1471 1471 1470 1469 1469 1469 1468 1467 1466 1465 1464 1464 1463 1462 1461 1460 1458 1457 1456 1454 1453 1451 1450 1449 1448 1447 1446 1444
1461 1462 1462 1463 1464 1465 1465 1466 1466 1466 1466 1466 1465 1465 1465 1464 1464 1463 1462 1460 1460 1459 1458 1458 1456 1455 1454 1453 1452 1450 1449 1448 1446 1445 1444 1443 1441 1440
1456 1457 1457 1458 1459 1460 1461 1461 1462 1462 1461 1462 1461 1461 1460 1460 1460 1459 1458 1456 1455 1455 1454 1453 1453 1451 1450 1449 1447 1446 1445 1444 1442 1441 1440 1438 1437 1436
1451 1452 1452 1453 1454 1455 1455 1456 1457 1457 1457 1458 1457 1456 1456 1456 1456 1455 1454 1452 1452 1451 1450 1448 1448 1446 1446 1445 1443 1442 1441 1440 1439 1438 1436 1434 1433 1431
1447 1447 1447 1448 1449 1450 1450 1450 1451 1451 1452 1452 1452 1452 1452 1452 1452 1451 1450 1449 1448 1448 1447 1444 1443 1442 1441 1441 1440 1438 1437 1436 1435 1434 1432 1431 1429 1427
1442 1443 1443 1443 1444 1445 1445 1445 1445 1446 1446 1447 1447 1447 1447 1448 1447 1447 1445 1444 1443 1443 1443 1441 1439 1438 1437 1436 1436 1435 1433 1432 1431 1430 1428 1427 1425 1423
1438 1438 1439 1439 1440 1440 1441 1441 1440 1441 1441 1441 1442 1442 1442 1442 1443 1442 1441 1440 1439 1438 1438 1437 1436 1435 1433 1432 1432 1431 1430 1429 1428 1427 1425 1423 1421 1419
1434 1434 1434 1435 1435 1436 1436 1436 1436 1437 1437 1437 1437 1437 1437 1437 1437 1438 1437 1437 1436 1435 1435 1434 1433 1432 1431 1429 1429 1428 1427 1426 1424 1423 1422 1420 1418 1417
1430 1430 1431 1431 1431 1431 1432 1432 1432 1432 1432 1432 1432 1432 1432 1432 1433 1433 1433 1433 1433 1432 1431 1431 1430 1429 1428 1427 1425 1424 1424 1423 1421 1419 1418 1416 1415 1413
1427 1427 1427 1427 1427 1427 1427 1427 1427 1428 1428 1427 1427 1428 1428 1428 1429 1429 1429 1429 1429 1429 1428 1428 1427 1427 1426 1424 1422 1421 1420 1419 1418 1417 1415 1413 1411 1409
1423 1423 1423 1423 1423 1422 1422 1422 1423 1423 1423 1423 1423 1424 1424 1424 1424 1425 1425 1425 1425 1425 1425 1425 1424 1424 1423 1422 1420 1419 1418 1416 1415 1414 1412 1410 1409 1407
1419 1419 1419 1419 1418 1418 1418 1418 1419 1419 1419 1419 1420 1420 1420 1420 1421 1421 1422 1422 1421 1421 1421 1422 1421 1421 1420 1419 1418 1417 1415 1414 1413 1411 1409 1406 1405 1404
1417 1416 1416 1416 1415 1415 1415 1415 1415 1415 1416 1416 1416 1416 1417 1417 1417 1418 1419 1419 1419 1419 1418 1418 1418 1417 1417 1416 1416 1414 1413 1411 1410 1409 1407 1404 1402 1401
1413 1413 1413 1413 1413 1413 1412 1412 1412 1413 1413 1413 1413 1413 1414 1414 1414 1415 1416 1416 1416 1417 1416 1416 1416 1415 1414 1412 1413 1413 1411 1409 1408 1406 1404 1402 1400 1398
1410 1410 1410 1410 1410 1410 1410 1410 1410 1410 1410 1410 1410 1410 1411 1411 1412 1413 1413 1414 1414 1414 1414 1414 1414 1413 1412 1412 1410 1410 1410 1408 1405 1403 1401 1399 1398 1396
1408 1407 1407 1407 1407 1407 1407 1407 1407 1407 1407 1408 1408 1408 1408 1409 1410 1411 1411 1411 1412 1412 1411 1412 1412 1412 1411 1410 1408 1407 1407 1406 1405 1402 1399 1397 1394 1392
1405 1405 1405 1405 1405 1405 1405 1404 1404 1405 1405 1405 1405 1406 1406 1407 1407 1408 1409 1409 1409 1409 1409 1410 1410 1409 1409 1408 1406 1405 1404 1403 1402 1401 1399 1397 1395 1391
1403 1403 1403 1402 1402 1402 1402 1402 1402 1402 1402 1403 1403 1403 1404 1404 1405 1406 1406 1407 1407 1407 1407 1407 1407 1407 1407 1406 1405 1403 1402 1401 1399 1397 1396 1395 1394 1392